Location: B?ogocice
(50.2413°N, 20.2361°E)
Time: 15:13:15
(UTC+00:00)

SAR-Lupe-4 - Pass Details

Date: 13 September 2024
Orbit: 476 x 483 km, 98.1° (Epoch: 03 October)

Event Time Altitude Azimuth Distance (km) Brightness Sun altitude
Rises 01:54:42 0° 20° (NNE) 2,558 8.1 -21.2°
Reaches altitude 10° 01:56:52 10° 27° (NNE) 1,672 7.2 -20.9°
Maximum altitude 02:00:17 41° 99° (E) 712 4.7 -20.5°
Enters shadow 02:02:02 23° 156° (SSE) 1,052 5.1 -20.2°
